AO-07 1 07530U 74089B 23362.51305660 -.00000043 00000-0 21720-4 0 9999 2 07530 101.9670 350.6354 0012450 52.5995 71.2994 12.53670569247520 UO-11 1 14781U 84021B 23362.61357177 .00002459 00000-0 28855-3 0 9990 2 14781 97.6832 332.3950 0006560 286.1719 73.8774 14.85812868123007 AO-16 1 20439U 90005D 23362.54792514 .00000322 00000-0 13410-3 0 9994 2 20439 98.8958 357.9143 0010738 0.6375 121.1436 14.33243472772747 LO-19 1 20442U 90005G 23362.44506272 .00000325 00000-0 13459-3 0 9997 2 20442 98.8671 343.3579 0011261 334.1954 25.8667 14.33399749773178 AO-27 1 22825U 93061C 23362.74593048 .00000218 00000-0 10145-3 0 9999 2 22825 98.8158 48.5200 0007836 214.1337 145.9342 14.30402343578376 IO-26 1 22826U 93061D 23362.55975877 .00000240 00000-0 10919-3 0 9997 2 22826 98.8103 48.1924 0008589 199.6669 160.4183 14.30773802578351 FO-29 1 24278U 96046B 23362.80103853 .00000012 00000-0 51400-4 0 9999 2 24278 98.5599 315.0901 0349099 272.2919 83.8297 13.53168584351500 NOAA-15 1 25338U 98030A 23362.81371103 .00000267 00000-0 12875-3 0 9992 2 25338 98.5874 28.3728 0011385 104.4722 255.7722 14.26462017333004 GO-32 1 25397U 98043D 23362.51243267 .00000181 00000-0 98656-4 0 9994 2 25397 98.8981 321.9154 0000613 349.1967 10.9197 14.23962390322985 ISS 1 25544U 98067A 23362.66528494 .00019783 00000-0 35580-3 0 9992 2 25544 51.6432 85.2073 0003207 323.3120 128.6500 15.49832627431955 NO-44 1 26931U 01043C 23362.50118224 .00000363 00000-0 16890-3 0 9997 2 26931 67.0518 55.0343 0005454 262.5925 97.4557 14.31079584161387 SO-50 1 27607U 02058C 23362.46756865 .00001937 00000-0 28186-3 0 9998 2 27607 64.5561 28.9847 0045721 179.7266 180.3871 14.78122433130935 CO-55 1 27844U 03031E 23362.47108598 .00000603 00000-0 28714-3 0 9994 2 27844 98.6783 6.9184 0008723 284.6099 75.4112 14.23015818 63365 CO-57 1 27848U 03031J 23362.55105836 .00000493 00000-0 24050-3 0 9995 2 27848 98.6816 7.3310 0008751 301.8139 58.2186 14.22493285 63132 RS-22 1 27939U 03042A 23362.77226865 .00002015 00000-0 35099-3 0 9995 2 27939 98.2662 151.6170 0011295 239.3882 227.5423 14.69140948 83102 NOAA-18 1 28654U 05018A 23362.79381909 .00000325 00000-0 19735-3 0 9999 2 28654 98.8929 76.0843 0014312 185.3371 174.7651 14.13088173959054 CO-58 1 28895U 05043F 23362.64911650 .00002736 00000-0 50032-3 0 9993 2 28895 98.1772 133.6574 0016189 175.3408 184.7950 14.66628123969535 CO-65 1 32785U 08021C 23362.52855008 .00005752 00000-0 53931-3 0 9998 2 32785 97.7339 324.8668 0011670 167.9324 192.2178 14.94349100849892 AAUSAT2 1 32788U 08021F 23362.51045513 .00014664 00000-0 91587-3 0 9993 2 32788 97.5801 338.5403 0008757 58.3084 301.8998 15.09545003852365 CO-66 1 32791U 08021J 23362.36372884 .00007583 00000-0 61474-3 0 9998 2 32791 97.6802 330.2080 0010234 118.5217 241.7038 14.99928611850735 RS-30 1 32953U 08025A 23362.80851146 .00000025 00000-0 10737-3 0 9994 2 32953 82.5019 196.0538 0019829 118.6783 241.6293 12.43133647707830 PRISM 1 33493U 09002B 23362.61784997 .00014413 00000-0 84397-3 0 9997 2 33493 98.2302 31.3816 0015647 110.1765 250.1148 15.11839953813068 NOAA-19 1 33591U 09005A 23362.79255033 .00000291 00000-0 18105-3 0 9995 2 33591 99.0742 51.5843 0014577 57.8647 302.3937 14.12895409767427 SRMSAT 1 37841U 11058D 23362.71348703 .00000544 00000-0 15326-3 0 9990 2 37841 19.9713 113.8033 0012157 10.0631 104.6573 14.11007542630539 HRBE 1 37855U 11061F 23362.77432003 .00055140 00000-0 11464-2 0 9992 2 37855 101.6926 76.7536 0087578 158.9805 201.5061 15.41367723666844 RS-40 1 38735U 12041C 23362.51909823 .00000042 00000-0 23689-3 0 9994 2 38735 82.4763 276.9072 0016351 232.5689 127.3903 12.42598829517853 ZACUBE-1 1 39417U 13066B 23362.44701055 .00005985 00000-0 65793-3 0 9992 2 39417 97.7134 317.8244 0053441 9.7981 350.4264 14.86935869546049 Delfi-N3xt 1 39428U 13066N 23362.75857177 .00007821 00000-0 10644-2 0 9990 2 39428 97.8394 281.0261 0104427 283.5230 75.4362 14.75263579540970 GOMX-1 1 39430U 13066Q 23362.78723550 .00002485 00000-0 42590-3 0 9990 2 39430 97.7554 242.4384 0144299 77.1170 284.6107 14.62946441537977 LO-74 1 39440U 13066AA 23362.84859997 .00004098 00000-0 50814-3 0 9993 2 39440 97.7969 305.6958 0074255 112.7714 248.1366 14.81242120544155 AO-73 1 39444U 13066AE 23362.42782494 .00007720 00000-0 80359-3 0 9990 2 39444 97.6989 320.5808 0050705 353.1623 6.8896 14.89151873544524 SPROUT 1 39770U 14029E 23362.54356340 .00041814 00000-0 22061-2 0 9999 2 39770 98.0020 137.4836 0005124 13.9443 346.1928 15.15406091521446 DTUSAT-2 1 40030U 14033W 23362.82313669 .00006038 00000-0 54962-3 0 9998 2 40030 97.9903 306.3675 0011086 15.1647 344.9903 14.95518593517573 EO-80 1 40032U 14033Y 23362.46233788 .00007278 00000-0 66088-3 0 9992 2 40032 97.9891 306.0139 0010793 18.5352 341.6260 14.95541779516983 HODOYOSHI-1 1 40299U 14070B 23362.77903669 .00017227 00000-0 43629-3 0 9995 2 40299 97.1681 60.8330 0007782 304.5416 55.5095 15.39764730508686 GRIFEX 1 40379U 15003D 23362.76995912 .00167070 00000-0 12084-2 0 9994 2 40379 99.0831 350.6892 0037530 312.1857 47.6215 15.71995568493572 XW-2C 1 40906U 15049H 23362.80339302 .00018313 00000-0 57503-3 0 9991 2 40906 97.4890 11.4090 0009605 182.7721 177.3470 15.33025943458147 XW-2D 1 40907U 15049J 23362.81292660 .00024462 00000-0 68394-3 0 9990 2 40907 97.4856 12.6738 0008743 170.1629 189.9788 15.36636440458281 LILACSAT-2 1 40908U 15049K 23362.80965165 .00007999 00000-0 34494-3 0 9997 2 40908 97.5266 5.7489 0011655 225.6645 134.3637 15.22765353457382 XW-2E 1 40909U 15049L 23362.68233168 .00091896 00000-0 11120-2 0 9994 2 40909 97.4335 22.1202 0007131 117.3469 242.8515 15.60353158459212 XW-2F 1 40910U 15049M 23362.78190878 .00091097 00000-0 11523-2 0 9997 2 40910 97.4439 21.4755 0007687 120.9211 239.2802 15.59180157458959 XW-2B 1 40911U 15049N 23362.77997373 .00024330 00000-0 68855-3 0 9999 2 40911 97.4833 12.9340 0008733 172.0658 188.0726 15.36258111458158 DCBB 1 40912U 15049P 23362.78382547 .00350567 00000-0 14679-2 0 9990 2 40912 97.3846 28.0843 0005663 86.4858 273.7060 15.84691771459898 IO-86 1 40931U 15052B 23357.18108553 .00001571 00000-0 12651-3 0 9993 2 40931 5.9980 177.1402 0012451 92.7083 267.4470 14.77533213445238 ChubuSat-2 1 41338U 16012B 23362.54670974 .00005791 00000-0 38126-3 0 9992 2 41338 31.0035 53.4659 0011629 316.3972 43.5746 15.06006313431681 ChubuSat-3 1 41339U 16012C 23362.50471719 .00005188 00000-0 34409-3 0 9995 2 41339 31.0101 51.3730 0011639 322.3831 37.5991 15.05671202431572 Horyu-4 1 41340U 16012D 23362.45231291 .00010697 00000-0 60639-3 0 9995 2 41340 31.0049 10.5261 0010026 33.7538 326.3738 15.11692597432102 e-st@r-II 1 41459U 16025D 23362.70581946 .00066028 00000-0 10879-2 0 9992 2 41459 98.1548 225.9333 0072529 132.2239 228.5195 15.49093465422796 Lapan A3 1 41603U 16040E 23362.79251271 .00003589 00000-0 15178-3 0 9995 2 41603 97.1522 19.3650 0012167 357.7580 2.3601 15.23759683417113 Pratham 1 41783U 16059A 23362.58524016 .00001159 00000-0 22625-3 0 9997 2 41783 97.8511 24.9124 0032212 202.6425 157.3359 14.64399379387421 CAS-2T 1 41847U 16066G 23362.16024705 .00001550 00000-0 23791-3 0 9990 2 41847 98.4834 69.6630 0356326 335.1646 23.2747 14.40483600374723 CAS-4B 1 42759U 17034B 23362.76308287 .00014343 00000-0 62308-3 0 9996 2 42759 43.0133 110.5603 0012119 290.4542 69.5007 15.22080671361233 CAS-4A 1 42761U 17034D 23362.77611659 .00013920 00000-0 60365-3 0 9991 2 42761 43.0139 108.9635 0012902 289.8407 70.1052 15.22150347361247 NIUSat 1 42766U 17036B 23362.61529580 .00066762 00000-0 90788-3 0 9996 2 42766 97.1294 31.3036 0008017 103.1955 257.0196 15.57333611362663 Aalto 1 1 42775U 17036L 23362.78931001 .00031653 00000-0 64355-3 0 9991 2 42775 97.1300 28.2621 0009375 112.1687 248.0559 15.46198678362478 URSA MAIOR 1 42776U 17036M 23362.61811061 .00044213 00000-0 76764-3 0 9990 2 42776 97.1292 30.2753 0008659 105.2461 254.9750 15.50679318362575 Max Valier Sat 1 42778U 17036P 23362.31309777 .00043558 00000-0 71414-3 0 9993 2 42778 97.1300 33.8926 0007628 107.2143 252.9946 15.52304621362694 Pegasus 1 42784U 17036V 23362.81442990 .00763651 27319-3 14879-2 0 9999 2 42784 97.0986 41.7737 0002099 89.9613 270.1906 16.00305002363364 VENTA 1 1 42791U 17036AC 23362.81033453 .01055761 61293-3 15544-2 0 9993 2 42791 97.0961 43.1463 0000996 102.5358 257.6036 16.05180798363439 D-SAT 1 42794U 17036AF 23362.61614474 .00008991 00000-0 67377-3 0 9992 2 42794 97.4800 346.0817 0112347 7.6018 352.6875 14.97933646355017 TechnoSat 1 42829U 17042E 23362.79115321 .00003943 00000-0 36516-3 0 9997 2 42829 97.3775 188.6947 0011742 294.2225 65.7769 14.94978963351558 AO-91 1 43017U 17073E 23362.63101049 .00007491 00000-0 49297-3 0 9998 2 43017 97.6024 239.4044 0222938 145.0292 216.5804 14.89627986330091 AO-92 1 43137U 18004AC 23362.50680120 .00236245 00000-0 12202-2 0 9990 2 43137 97.3031 86.9920 0000894 175.0218 185.1059 15.80467115332568 TianYi 2 1 43155U 18008A 23362.77421339 .00033964 00000-0 94332-3 0 9996 2 43155 97.2695 51.6470 0009650 344.3630 15.7315 15.36765851328411 Zhou Enlai 1 43156U 18008B 23362.76439491 .00041488 00000-0 10716-2 0 9997 2 43156 97.2740 52.2206 0007618 346.9179 13.1868 15.38986191328368 TianYi 6 1 43158U 18008D 23362.76758567 .00027101 00000-0 87582-3 0 9999 2 43158 97.2795 47.8880 0008572 354.6526 5.4623 15.32027969328119 S-Net D 1 43186U 18014G 23362.26854970 .00005445 00000-0 41547-3 0 9995 2 43186 97.6070 262.2736 0010026 223.5845 136.4588 15.02371244322673 S-Net B 1 43187U 18014H 23362.27016745 .00005545 00000-0 42299-3 0 9993 2 43187 97.6079 262.2108 0011164 219.8841 140.1564 15.02366152322672 S-Net A 1 43188U 18014J 23362.26984025 .00005559 00000-0 42397-3 0 9992 2 43188 97.6082 262.3108 0010941 220.4227 139.6186 15.02372605322679 S-Net C 1 43189U 18014K 23362.27260106 .00005689 00000-0 43364-3 0 9990 2 43189 97.6093 262.2245 0012976 215.0076 145.0297 15.02368159321228 CubeBel-1 1 43666U 18083E 23362.82269762 .00123657 00000-0 13208-2 0 9993 2 43666 97.3509 38.0568 0006422 115.4259 244.7664 15.63490251287300 Changshagaoxin 1 43669U 18083H 23362.78438819 .00062164 00000-0 10474-2 0 9999 2 43669 97.3564 30.8639 0005809 124.9213 235.2585 15.51469657286923 Ten-Koh 1 43677U 18084G 23362.75486344 .00004543 00000-0 42629-3 0 9997 2 43677 98.0374 146.7428 0013716 221.2887 138.7296 14.94438205281108 PO-101 1 43678U 18084H 23362.77404669 .00002982 00000-0 28300-3 0 9995 2 43678 98.0469 151.1292 0008124 232.9868 127.0608 14.94319604281310 QO-100 1 43700U 18090A 23362.84980039 .00000153 00000-0 00000+0 0 9997 2 43700 0.0181 346.9459 0002233 327.3304 114.4828 1.00269684 18887 MinXSS-2 1 43758U 18099A 23362.77459851 .00009252 00000-0 65404-3 0 9996 2 43758 97.5811 63.1009 0018256 178.6961 181.4316 15.04970607276973 AO-95 1 43770U 18099N 23362.13508905 .00006645 00000-0 50208-3 0 9994 2 43770 97.5709 58.8502 0013595 224.8728 135.1399 15.02629061276709 RANGE-B 1 43772U 18099Q 23362.73352330 .00010720 00000-0 75283-3 0 9990 2 43772 97.5489 62.5326 0006435 132.8035 227.3733 15.05294040276890 RANGE-A 1 43773U 18099R 23362.60980515 .00004649 00000-0 37439-3 0 9993 2 43773 97.5345 56.3327 0015917 186.7322 173.3691 15.00315039276694 MOVE-II 1 43780U 18099Y 23362.16908085 .00014503 00000-0 91847-3 0 9997 2 43780 97.5477 62.4910 0007071 201.3736 158.7199 15.09049247276930 SNUSat 2 1 43782U 18099AA 23362.40482422 .00005594 00000-0 42888-3 0 9999 2 43782 97.5391 59.1519 0015884 158.4137 201.7761 15.02112031276763 SnugLite 1 43784U 18099AC 23362.73588569 .00006457 00000-0 48481-3 0 9990 2 43784 97.5212 58.9566 0005100 158.5876 201.5563 15.02938814276861 ITASat 1 1 43786U 18099AE 23362.74852201 .00005532 00000-0 42845-3 0 9991 2 43786 97.5401 59.9696 0018017 200.9759 159.0729 15.01705054276825 EAGLET 1 1 43790U 18099AJ 23361.40246907 .00004854 00000-0 38494-3 0 9999 2 43790 97.5568 59.0765 0017718 198.1791 161.8802 15.00868207276342 ESEO 1 43792U 18099AL 23362.59541955 .00002265 00000-0 19330-3 0 9995 2 43792 97.5465 57.9837 0011785 181.8075 178.3108 14.98617291276498 CSIM 1 43793U 18099AM 23362.62028022 .00012006 00000-0 75665-3 0 9992 2 43793 97.5543 64.4993 0014402 178.5763 181.5509 15.09207771276850 JO-97 1 43803U 18099AX 23362.81756416 .00007629 00000-0 55786-3 0 9997 2 43803 97.5476 60.5502 0011310 158.1311 202.0400 15.03838628276919 Suomi 100 1 43804U 18099AY 23362.79911537 .00007501 00000-0 55497-3 0 9990 2 43804 97.5521 60.3315 0017121 162.6674 197.5140 15.03335586276902 CHOMPTT 1 43855U 18104G 23362.53556486 .00055254 00000-0 76111-3 0 9997 2 43855 85.0210 32.4660 0004757 311.2773 48.8078 15.57015271280628 ISAT 1 43879U 18111D 23362.62951468 .00009984 00000-0 68701-3 0 9995 2 43879 97.6317 264.6408 0012684 219.9343 140.0952 15.06031166273561 UWE-4 1 43880U 18111E 23362.46883744 .00009061 00000-0 63173-3 0 9994 2 43880 97.6247 264.8745 0015931 230.4764 129.5055 15.05529765273566 Sparrow 1 43881U 18111F 23362.52037242 .00009311 00000-0 63442-3 0 9993 2 43881 97.6399 266.1421 0008650 267.9830 92.0407 15.06452677273608 Lume 1 1 43908U 18111AJ 23362.59012680 .00182465 00000-0 11149-2 0 9997 2 43908 97.1007 245.6129 0005677 160.7329 199.4153 15.76830767279642 AISTechSat 3 1 44103U 19018AB 23362.77373207 .00075851 00000-0 93370-3 0 9994 2 44103 97.2207 61.6787 0004456 284.5649 75.5114 15.59978642264622 AISat 1 1 44104U 19018AC 23362.79864359 .00042766 00000-0 51683-3 0 9990 2 44104 97.3701 99.2951 0028536 262.5019 97.2996 15.60099088265917 Prox-1 1 44339U 19036A 23362.08425947 .00009100 00000-0 17037-2 0 9997 2 44339 23.9994 248.8767 0009320 248.7644 111.1854 14.62780513239981 SONATE 1 44400U 19038Q 23362.67812040 .00015498 00000-0 58807-3 0 9995 2 44400 97.7030 345.2868 0018422 359.0726 1.0474 15.26786754247858 BeeSat 9 1 44412U 19038AC 23362.49153828 .00052359 00000-0 10857-2 0 9999 2 44412 97.6854 351.6199 0010298 347.8617 12.2381 15.45505546247994 JAISAT-1 1 44419U 19038F 23362.48262604 .00051175 00000-0 10636-2 0 9998 2 44419 97.6833 352.7276 0009634 344.2131 15.8815 15.45450598248370 Taurus 1 1 44530U 19059C 23362.79394898 .00006592 00000-0 16250-2 0 9991 2 44530 98.5647 114.0285 0012716 214.6890 145.3476 14.52448500226862 Duchifat 3 1 44854U 19089C 23362.37940252 .00011662 00000-0 69431-3 0 9992 2 44854 36.9613 7.1380 0007198 136.4892 223.6422 15.10652470222235 OPS-SAT 1 44878U 19092F 23362.47969621 .00042826 00000-0 80226-3 0 9995 2 44878 97.4591 195.3881 0006814 153.5293 206.6307 15.48535835223705 TO-108 1 44881U 19093C 23362.77716981 .00001572 00000-0 19900-3 0 9996 2 44881 97.8465 77.8197 0015041 158.1950 201.9907 14.83119043217636 FloripaSat 1 1 44885U 19093G 23362.78553317 .00006031 00000-0 66383-3 0 9995 2 44885 97.8559 81.9137 0013720 156.1871 203.9983 14.87869493217862 RS-44 1 44909U 19096E 23362.58261008 .00000039 00000-0 10423-3 0 9992 2 44909 82.5205 218.7707 0218422 92.4748 270.1376 12.79725019187022 BY70-2 1 45857U 20042B 23362.77984253 .00038739 00000-0 29019-2 0 9991 2 45857 97.9247 84.7418 0006552 70.9430 289.2504 15.02564029188621 UPMSat 2 1 46276U 20061E 23362.17901530 .00012798 00000-0 47008-3 0 9995 2 46276 97.3237 66.0165 0002083 56.4352 303.7086 15.28052233183864 AmicalSat 1 46287U 20061R 23362.14780706 .00021176 00000-0 80108-3 0 9992 2 46287 97.3760 65.5863 0002935 109.7836 250.3719 15.26967695183237 SALSAT 1 46495U 20068K 23362.49524284 .00006780 00000-0 41774-3 0 9995 2 46495 97.7955 313.1309 0014680 172.6788 187.4657 15.10224357178374 CAPE 3 1 47309U 21002A 23362.44614374 .00153645 00000-0 11962-2 0 9992 2 47309 60.6657 18.4572 0027422 48.3604 311.9847 15.70436851164435 AO-109 1 47311U 21002C 23362.42180145 .00067015 00000-0 89005-3 0 9996 2 47311 60.6750 23.4579 0028210 49.7345 310.6218 15.57292637164321 ExoCube 2 1 47319U 21002L 23362.49751256 .00060666 00000-0 86065-3 0 9996 2 47319 60.6727 26.5494 0029019 49.7169 310.6463 15.55533344164249 UVSQ-SAT 1 47438U 21006AB 23362.70103242 .00026711 00000-0 83413-3 0 9999 2 47438 97.3569 57.7749 0009301 108.2231 252.0025 15.33123153162356 YUSAT 1 1 47439U 21006AC 23362.69203915 .00038073 00000-0 97846-3 0 9995 2 47439 97.3573 59.6744 0008139 102.4819 257.7338 15.39155719162475 SOMP 2b 1 47445U 21006AJ 23362.61267345 .00023309 00000-0 75870-3 0 9990 2 47445 97.3535 56.5752 0009377 114.3838 245.8383 15.31822197162294 IDEASSat 1 47458U 21006AX 23362.70658385 .00021729 00000-0 73552-3 0 9991 2 47458 97.3633 57.4417 0008889 114.2881 245.9289 15.30575053162278 CubeSX-Sirius-HSE 1 47951U 21022V 23362.76132025 .00014635 00000-0 70627-3 0 9999 2 47951 97.4788 257.3418 0017856 25.7279 334.4839 15.18638670152502 CubeSX-HSE 1 47952U 21022W 23362.79122114 .00015757 00000-0 75825-3 0 9992 2 47952 97.4788 257.4380 0017765 24.9202 335.2886 15.18723109152512 KSU-Cubesat 1 47954U 21022Y 23362.69456890 .00017067 00000-0 78462-3 0 9990 2 47954 97.4796 258.0766 0016900 23.3517 336.8482 15.20298381152263 GRBAlpha 1 47959U 21022AD 23362.76670728 .00014759 00000-0 70872-3 0 9993 2 47959 97.4791 257.5311 0017620 25.4489 334.7609 15.18813992151337 Orbicraft-Zorkiy 1 47960U 21022AE 23362.80506520 .00017387 00000-0 80529-3 0 9998 2 47960 97.4827 258.3504 0017014 23.3142 336.8861 15.20037567152065 STECCO 1 47962U 21022AG 23362.79995070 .00038505 00000-0 12431-2 0 9991 2 47962 97.4802 263.1048 0010685 10.4113 349.7347 15.31967940151700 MO-110 1 47964U 21022AJ 23362.51171742 .00041887 00000-0 12851-2 0 9998 2 47964 97.4820 263.7827 0011766 4.7841 355.3511 15.33565476151715 FEES 1 48082U 21022AL 23362.48766842 .00202062 00000-0 23807-2 0 9994 2 48082 97.4748 268.7316 0005580 33.0692 327.0912 15.60694122151745 TUBIN 1 48900U 21059X 23362.82105510 .00012245 00000-0 50624-3 0 9990 2 48900 97.6226 138.6027 0007538 332.0366 28.0464 15.24105729138774 IT-SPINS 1 49017U 21013G 23362.80452801 .00126376 00000-0 10234-2 0 9999 2 49017 51.5789 189.7353 0004132 244.6020 115.4549 15.69868584139947 LEDSAT 1 49069U 21073D 23362.80511946 .00013339 00000-0 63953-3 0 9999 2 49069 97.4615 70.7270 0022074 161.4906 198.7137 15.18811398130394 CUTE 1 49263U 21088D 23362.14937274 .00012421 00000-0 69605-3 0 9995 2 49263 97.5222 64.9527 0015283 320.2877 39.7234 15.13442988123575 TeikyoSat 4 1 49396U 21102B 23362.56938160 .00002290 00000-0 17307-3 0 9995 2 49396 97.4849 48.3711 0014411 136.0507 224.1868 15.03247576116965 Z-Sat 1 49399U 21102E 23362.67947079 .00004792 00000-0 32634-3 0 9998 2 49399 97.4589 49.7210 0022437 123.3902 236.9477 15.06538405117159 KOSEN 1 1 49402U 21102H 23362.62594187 .00006778 00000-0 43182-3 0 9992 2 49402 97.4511 50.5882 0021170 110.6364 249.7138 15.08876937117252 HO-113 1 50466U 21131B 23362.78113959 .00000919 00000-0 31045-3 0 9993 2 50466 98.5407 83.6455 0003126 279.4521 80.6314 14.39268692105344 Tevel-3 1 50988U 22002E 23362.78465688 .00038483 00000-0 10520-2 0 9990 2 50988 97.4086 69.6218 0004782 264.8930 95.1769 15.37268850108529 Tevel-8 1 50989U 22002F 23362.74795838 .00038368 00000-0 10521-2 0 9993 2 50989 97.4104 69.6646 0004735 263.0156 97.0549 15.37174011108516 Tevel-5 1 50998U 22002Q 23362.78700314 .00042184 00000-0 10966-2 0 9996 2 50998 97.4082 70.3162 0005599 255.4573 104.6051 15.38799372108573 Tevel-6 1 50999U 22002R 23362.78645543 .00041863 00000-0 10891-2 0 9999 2 50999 97.4080 70.3037 0005613 255.2851 104.7772 15.38776909108579 Tevel-1 1 51013U 22002AF 23362.73688628 .00038944 00000-0 10673-2 0 9997 2 51013 97.4079 69.4782 0004654 264.2812 95.7901 15.37187989108512 NO-116 1 51031U 22002AZ 23362.45672302 .00233674 00000-0 20562-2 0 9993 2 51031 97.4154 76.8204 0005360 257.8172 102.2488 15.68028548108893 IRIS-A 1 51044U 22002BN 23362.12515084 .00015190 00000-0 61844-3 0 9994 2 51044 97.4110 64.9904 0005885 285.0599 74.9987 15.24575130108156 Tevel-7 1 51062U 22002CG 23362.74498886 .00038898 00000-0 10647-2 0 9996 2 51062 97.4099 69.6316 0004777 263.3461 96.7239 15.37226610108519 Tevel-4 1 51063U 22002CH 23362.76139043 .00037427 00000-0 10290-2 0 9997 2 51063 97.4097 69.6025 0004697 262.8341 97.2369 15.37097657108514 Tevel-2 1 51069U 22002CP 23362.78522969 .00038844 00000-0 10612-2 0 9990 2 51069 97.4085 69.5896 0004745 264.4377 95.6326 15.37286771108526 DELFI-PQ 1 51074U 22002CU 23362.78663822 .00891681 35433-3 23138-2 0 9994 2 51074 97.4225 82.0901 0007303 289.7145 70.3342 15.95066277109183 SO-115 1 51080U 22002DA 23362.43552507 .00058263 00000-0 12598-2 0 9998 2 51080 97.4377 75.2212 0006713 288.7448 71.3071 15.44274795108691 SO-114 1 51081U 22002DB 23361.99504785 .00057714 00000-0 12258-2 0 9997 2 51081 97.4367 74.8150 0006787 288.8526 71.1986 15.44806084108635 OreSat0 1 52017U 22026K 23362.51444202 .00028920 00000-0 85114-3 0 9998 2 52017 97.5062 6.7525 0019714 112.4570 247.8764 15.34834652 99246 Planetum 1 1 52738U 22057G 23362.32843731 .00022859 00000-0 82850-3 0 9990 2 52738 97.5531 119.4410 0006625 37.3561 322.8138 15.28354152 88224 Foresail-1 1 52766U 22057AL 23362.82271369 .00014819 00000-0 59908-3 0 9993 2 52766 97.5664 120.5673 0011166 17.2742 342.8873 15.24780857 88285 SNUGLITE 2 1 52899U 22065F 23362.76799461 .00001860 00000-0 39684-3 0 9991 2 52899 98.0932 142.6165 0007198 336.5142 23.5729 14.60015866 79247 IO-117 1 53106U 22080B 23353.26709400 -.00000003 00000-0 00000-0 0 9995 2 53106 70.1425 255.3862 0008213 145.5074 214.6119 6.42557317 33647 SelfieSat 1 53951U 22057BC 23362.33142779 .00033164 00000-0 10422-2 0 9999 2 53951 97.5571 121.0356 0007381 24.3949 335.7641 15.32894021 88300 FO-118 1 54684U 22167C 23362.80559501 .00018803 00000-0 85782-3 0 9997 2 54684 97.5838 140.2111 0012328 25.7977 334.3871 15.20605776 58182 SSS-2B 1 56184U 23054G 23362.68477379 .00021403 00000-0 73867-3 0 9999 2 56184 97.3895 255.5868 0011288 71.3916 288.8549 15.29925348 39838 CIRBE 1 56188U 23054L 23362.61301810 .00035352 00000-0 10936-2 0 9997 2 56188 97.3839 255.8213 0010274 64.8379 295.3928 15.33356220 39859 INSPIRE-Sat 7 1 56211U 23054AK 23362.70651043 .00031928 00000-0 93689-3 0 9992 2 56211 97.3868 256.6885 0013622 48.0733 312.1669 15.35010321 39918 RoseyCubesat 1 1 56212U 23054AL 23362.69490818 .00035331 00000-0 10021-2 0 9992 2 56212 97.3874 256.8763 0013666 46.7937 313.4446 15.36054942 39928 SO-120 1 56992U 23084BU 23361.55418217 .00021673 00000-0 10573-2 0 9993 2 56992 97.5200 115.6840 0015036 269.4990 90.4521 15.18219536 29918 MRC-100 1 56993U 23084BV 23362.25497001 .00021224 00000-0 10180-2 0 9996 2 56993 97.5211 116.4517 0014921 267.7111 92.2415 15.18814333 30032 UmKA 1 (RS40S) 1 57172U 23091G 23362.81286836 .00005539 00000-0 39093-3 0 9994 2 57172 97.6398 51.6604 0017237 350.4204 9.6692 15.05234622 27692 CubeBel-2 (EU11S) 1 57175U 23091K 23362.79352846 .00006456 00000-0 45589-3 0 9995 2 57175 97.6392 51.5231 0016097 4.0792 356.0563 15.05165712 27689 VERONIKA 1 58261U 23174F 23362.16126263 .00015232 00000-0 82709-3 0 9994 2 58261 97.4826 74.3006 0014569 120.1523 240.1155 15.14526773 7623 KAFASAT 1 58317U 23174BP 23362.77380445 .00016467 00000-0 85203-3 0 9990 2 58317 97.4768 74.9790 0013648 98.8332 261.4447 15.16229956 7728 ENSO 1 58470U 23185J 23362.78518272 .00012450 00000-0 62355-3 0 9995 2 58470 97.4526 66.9016 0014701 153.9739 206.2236 15.17426335 4100 EIRSAT-1 1 58472U 23185L 23362.78584540 .00013919 00000-0 69687-3 0 9994 2 58472 97.4518 66.8965 0014449 155.0391 205.1544 15.17416005 4104 SO-121 1 58567U 23174CY 23362.14233321 .00026403 00000-0 13969-2 0 9998 2 58567 97.4786 74.3025 0016156 109.9294 250.3680 15.15309427 7624 Clark sat-1 (AMBITIOUS) 1 58613U 98067WE 23362.70092535 .00075964 00000-0 11944-2 0 9992 2 58613 51.6409 84.8939 0005628 30.8163 329.3156 15.52920517 1651 /EX